PIESAT-2 12

导读 | 豆包AI

PIESAT-2 12是由中国于2024年12月16日08:00发射的卫星,属于PIESAT-2系列。作为中国自主研制的航天发射任务成果,该卫星进入预定轨道后,将服务相关领域应用需求,推动空间观测或技术试验等航天领域发展,是中国航天事业持续推进卫星组网与技术探索的又一次实践,展现中国在航天发射领域的稳步发展。

基本信息
目录编号:
62336
目录名称:
PIESAT-2 12
国际标识:
2024-241D
轨道中心:
EARTH
卫星名称:
PIESAT-2 12
卫星全名:
PIESAT-2 12
卫星状态:
在轨 (已飞行525 天)
发射日期:
2024-12-16 UTC
国别 :
中国 (CN)
星等 :
--
轨道信息
数据来源 国际轨道数据
星历时间: 2026-05-24T13:06:24+0800
21小时前
查看轨道信息
半长轴: 6901.937km
偏心率: 0.0002335
轨道倾角: 97.524°
近地点辐角 86.579°
升交点赤经 91.971°
平近点角 273.571°
近地点: 522.188km
远地点: 525.412km
周期: 95.108分钟
每日圈数: 15.140714
详细信息
使用方式:
暂无
2D轨道图
3D轨道图
轨道高度分析图
轨道倾角分析图
轨道综合分析图
查看轨道综合分析图